Temp
19 19 19 18 18 18 18 18 18 18 18 18 18 18 18 18 18 18 18 18 18 18 17 17 18 18 18 18 18 18 18 18 18 18 18 18 19 19 19 19 19 19
19 19 18 18 18 18 18 18 18 18 18 18 18 18 18 18 18 18 18 18 18 18 18 17 17 18 18 18 17 18 18 18 18 18 18 18 18 18 18 19 19 19
18 18 18 18 18 18 18 18 18 18 18 18 18 18 18 18 18 18 18 18 17 18 18 17 17 17 18 18 17 17 17 17 18 18 18 18 18 18 18 18 19 19
18 18 18 18 18 18 17 17 17 17 17 18 18 18 17 17 17 17 17 17 17 17 18 18 17 17 17 17 17 17 17 17 17 17 18 18 18 18 18 18 18 19
18 18 18 18 18 17 17 17 17 17 17 17 17 17 17 17 17 17 17 17 17 17 17 17 17 17 17 17 17 17 17 17 17 17 17 17 18 18 18 18 18 18
18 18 18 18 17 17 17 17 17 17 17 17 17 17 17 17 17 17 17 17 17 17 17 17 17 17 17 16 16 17 17 16 17 17 17 17 17 17 17 18 18 18
18 18 18 17 17 17 17 17 17 17 17 17 17 17 17 17 17 17 17 17 17 17 17 17 17 17 17 16 16 16 16 16 16 16 16 16 17 17 17 17 17 17
18 18 17 17 17 17 17 17 17 17 16 16 16 16 16 16 16 16 16 16 16 16 16 16 16 16 16 16 16 16 16 16 16 16 16 16 16 16 16 16 17 17
18 18 17 17 17 17 17 17 16 16 16 16 16 16 16 16 16 16 16 16 16 16 16 16 16 16 16 16 15 15 16 16 16 16 15 15 15 16 16 16 16 16
18 17 17 17 17 17 17 17 16 16 16 16 16 16 16 16 16 16 16 16 16 16 15 15 15 15 15 15 15 15 15 15 15 15 15 15 15 15 15 16 16 16
18 17 17 17 17 17 17 16 16 16 16 16 16 16 16 15 15 15 15 15 15 15 15 15 15 15 15 15 15 15 15 15 15 15 15 15 15 15 15 15 15 16
18 17 17 17 17 17 17 16 16 16 16 16 16 15 15 15 15 15 15 15 15 15 15 15 15 15 15 15 15 15 15 15 15 15 15 15 15 15 15 15 15 16
18 17 17 17 17 17 16 16 16 16 16 16 15 15 15 15 15 15 15 15 15 15 15 15 15 15 15 15 15 15 15 15 15 15 15 14 14 15 15 15 15 15
17 17 17 17 17 17 16 16 16 16 15 15 15 15 15 15 15 15 15 15 15 14 14 14 14 14 14 14 14 14 14 15 15 15 14 14 14 14 14 14 15 15
17 17 17 17 17 16 16 16 16 15 15 15 15 15 15 14 14 14 14 14 14 14 13 13 13 13 13 13 13 13 14 14 14 14 14 14 14 14 14 14 14 15
17 17 17 17 17 16 16 16 16 15 15 15 15 14 14 14 14 14 14 14 14 14 13 13 13 13 12 12 12 12 12 12 13 14 14 13 13 13 14 14 14 14
17 17 17 17 16 16 16 16 16 15 15 15 15 14 14 14 14 14 14 14 14 14 13 13 13 12 12 11 11 10 10 11 11 12 13 13 12 12 13 14 14 14
17 17 17 17 16 16 16 16 16 15 15 15 15 14 14 14 14 14 14 13 13 13 13 13 13 13 12 11 11 10 10 10 10 11 11 11 11 11 12 12 13 13
17 17 17 16 16 16 16 16 15 15 15 15 14 14 14 14 14 13 13 13 13 13 13 12 13 13 12 11 11 10 10 10 10 10 10 11 11 11 11 12 12 12
17 17 17 16 16 16 16 16 15 15 15 15 14 14 14 14 13 13 13 13 13 13 13 12 12 12 12 11 11 10 10 10 10 10 11 11 11 12 12 12 13 12
17 17 17 16 16 16 16 15 15 15 15 15 14 14 14 14 13 13 13 12 12 12 12 12 12 12 12 11 11 10 10 10 10 11 11 11 12 12 12 13 13 13
17 17 17 16 16 16 15 15 15 15 15 15 14 14 14 14 13 13 12 12 12 12 12 12 12 11 11 11 11 10 10 10 10 10 11 11 11 12 12 12 12 13
17 17 16 16 16 16 15 15 15 15 15 14 14 14 14 13 13 13 12 12 12 12 12 12 11 12 11 11 11 10 10 10 10 10 10 11 11 12 12 12 12 12
17 17 16 16 16 16 15 15 15 15 14 14 14 14 14 13 13 12 12 12 12 12 12 12 12 12 12 11 11 10 10 10 10 10 10 10 11 11 12 12 12 12
17 17 16 16 16 16 15 15 15 14 14 14 14 14 14 13 13 12 12 12 12 11 12 12 12 12 12 11 11 10 10 10 10 10 10 10 11 11 11 11 12 12
17 17 16 16 16 16 15 15 15 14 14 14 14 13 13 13 12 12 12 12 11 11 11 11 11 11 11 11 11 11 10 10 10 10 9 10 10 11 11 11 11 11
Height
824 825 825 826 827 827 827 828 828 827 827 827 826 826 826 826 827 827 827 828 828 828 828 828 829 829 829 829 829 829 829 829 829 830 830 831 831 831 831 831 832 832
822 823 824 825 825 826 826 827 827 826 826 825 825 824 824 824 824 825 825 825 825 826 826 826 826 827 827 827 827 827 827 827 828 828 829 829 829 829 829 829 830 830
820 821 822 823 824 825 826 826 826 825 825 824 823 823 823 822 822 823 823 823 823 824 824 824 825 825 825 825 826 826 826 826 826 826 827 827 827 827 827 828 828 828
818 819 820 821 822 823 824 825 825 825 824 823 822 821 821 821 821 821 821 821 821 821 821 822 822 822 823 823 824 824 824 824 825 825 825 824 825 825 825 825 825 825
817 818 818 819 820 821 823 823 823 823 823 822 821 820 820 819 819 819 819 819 819 819 819 820 821 821 821 822 822 822 822 822 823 823 822 822 822 822 823 823 823 822
816 817 817 818 819 820 821 822 822 822 821 821 820 819 819 818 818 818 818 818 817 817 818 818 819 819 819 820 820 820 820 820 820 820 819 819 820 820 820 821 820 820
815 816 817 817 818 819 820 820 820 820 820 820 819 819 818 817 817 817 816 816 816 816 816 817 817 818 818 818 818 818 818 818 818 818 817 817 817 818 818 818 818 818
815 816 816 817 817 817 818 818 819 819 819 819 818 818 817 817 816 816 816 816 815 815 815 815 815 816 816 816 816 816 816 816 816 816 816 816 815 815 815 815 816 815
814 815 815 816 816 816 817 817 818 818 818 818 818 817 817 816 816 815 815 815 814 815 814 814 814 814 814 814 814 814 814 814 814 814 814 814 813 812 812 813 813 812
813 814 814 814 815 815 815 816 817 817 817 817 817 817 817 816 815 815 814 814 814 814 814 814 813 812 812 812 812 812 812 812 812 812 811 811 811 810 810 810 810 809
811 813 813 813 813 814 814 815 815 816 816 816 816 816 816 815 815 815 814 814 813 813 813 813 813 812 812 811 810 810 809 809 809 809 809 808 808 808 807 807 807 806
810 811 812 812 812 812 813 813 813 814 814 814 814 815 815 815 814 814 814 813 813 813 812 812 812 812 811 810 809 808 807 807 807 806 806 806 805 805 805 804 804 803
808 809 810 810 811 811 811 811 812 812 812 812 813 813 813 813 813 813 813 812 812 811 811 811 811 810 809 808 807 806 805 805 804 803 803 803 803 802 802 801 801 801
806 808 808 809 809 809 809 810 810 811 812 812 812 811 812 812 812 812 812 811 810 810 809 809 809 808 807 806 805 804 803 802 801 800 800 799 799 799 799 798 797 797
805 806 806 807 807 807 808 809 810 811 811 811 811 810 810 810 810 810 810 809 809 808 807 807 807 806 805 804 803 801 800 799 798 797 797 796 796 796 795 795 794 794
802 804 804 805 805 806 807 808 809 809 810 810 809 809 808 808 808 808 808 808 807 806 806 805 805 804 803 802 801 800 798 797 796 795 794 793 792 792 791 791 790 790
800 801 802 803 804 805 806 806 807 808 808 808 808 807 807 807 807 806 806 806 805 805 804 803 803 802 801 800 799 798 797 795 793 792 791 790 789 788 787 787 787 787
798 799 800 802 803 804 805 805 806 806 806 806 806 806 806 805 805 804 803 803 803 803 802 802 801 800 799 798 797 796 795 793 792 790 788 787 786 785 784 784 784 784
795 797 798 800 801 802 803 804 804 804 804 804 804 804 804 803 802 802 801 801 801 801 801 800 799 798 797 797 795 794 794 792 790 788 786 784 783 782 781 781 780 781
792 794 797 799 800 801 802 802 802 802 802 802 802 802 801 800 800 800 799 799 799 799 798 798 797 796 795 795 794 793 792 791 789 787 784 782 781 779 779 778 777 777
790 793 795 797 798 799 800 800 801 801 801 800 800 800 799 799 799 798 798 798 797 797 796 795 795 794 793 793 792 791 790 789 787 785 782 780 778 777 776 775 774 774
789 791 793 795 796 797 797 798 798 798 799 799 798 798 798 798 797 797 796 796 795 795 794 793 793 792 791 791 790 790 789 787 785 783 780 778 777 775 774 772 771 771
787 789 791 792 793 794 794 795 796 796 796 797 797 797 796 796 796 795 794 794 793 793 792 792 791 790 790 789 789 788 787 785 784 781 779 778 776 774 772 770 768 767
784 786 788 789 790 791 792 792 793 794 794 794 794 794 794 794 793 793 792 792 791 791 791 790 789 788 788 788 787 786 785 784 783 781 779 777 775 773 770 768 766 765
782 783 785 786 787 788 789 790 790 791 792 792 792 792 792 791 791 791 790 789 789 789 789 788 788 787 787 786 785 785 784 783 782 781 779 777 775 772 770 767 765 763
779 781 782 783 784 785 786 787 788 789 789 789 789 790 789 789 789 788 788 787 787 787 787 787 787 786 785 785 784 784 783 782 782 780 778 777 775 773 770 767 765 763
Wind_Speed
11 11 11 11 11 12 12 13 12 12 12 13 15 16 16 16 16 16 17 19 21 23 24 24 23 22 22 23 23 22 21 21 22 23 24 25 25 25 25 25 24 23
10 10 10 9 10 10 11 11 11 11 12 12 12 13 14 15 15 16 17 18 19 20 21 22 23 23 23 23 24 24 24 23 23 22 23 25 25 25 26 25 25 24
10 9 8 8 8 8 9 9 9 10 11 11 12 13 13 14 15 15 16 17 18 19 19 20 21 22 23 23 24 25 25 25 25 23 24 25 25 25 25 25 25 25
10 9 8 8 8 8 9 9 9 9 10 10 11 11 12 12 12 13 13 14 16 17 19 20 20 21 22 22 22 23 24 25 26 25 25 26 26 25 25 25 25 26
11 10 9 8 8 8 8 9 9 9 8 9 10 10 10 11 12 11 11 12 13 14 16 18 20 21 21 21 21 22 24 25 25 26 28 29 28 27 26 26 26 26
13 12 10 9 8 7 8 8 7 7 6 6 7 7 8 9 10 11 11 12 12 12 12 13 16 18 19 20 20 21 23 24 24 26 28 29 29 28 27 27 28 27
14 13 12 11 9 8 8 8 7 6 5 4 4 5 5 6 8 10 10 11 11 10 10 9 10 12 14 16 17 19 20 21 23 25 27 28 28 28 28 28 28 29
13 13 13 12 11 9 8 8 7 7 6 5 5 5 4 3 4 6 6 6 7 7 7 7 7 8 10 12 14 17 17 18 20 23 25 27 28 29 29 29 29 30
14 13 12 11 11 10 9 8 7 7 6 6 6 5 5 4 3 5 5 4 4 5 5 6 8 9 10 11 12 13 14 16 18 21 24 26 27 29 30 29 29 30
16 14 13 12 12 10 9 8 7 7 7 7 7 6 6 5 5 5 6 5 6 6 6 7 8 9 10 10 10 11 12 15 17 20 23 24 26 27 28 28 29 30
17 16 16 15 13 11 10 10 9 9 8 8 8 9 8 7 6 6 6 5 5 5 6 7 8 8 9 9 10 11 13 15 17 19 21 22 24 26 26 27 28 29
18 18 18 16 15 14 13 12 11 11 11 10 10 10 9 8 7 7 6 6 6 7 9 10 11 12 13 13 13 13 14 15 16 18 19 21 22 24 25 26 27 28
21 21 20 18 17 15 13 12 12 13 13 12 12 12 11 10 8 7 7 7 9 10 12 14 15 16 18 18 17 16 16 17 18 19 20 20 21 22 24 25 27 28
24 23 21 19 16 14 12 12 13 13 12 12 12 12 11 10 8 7 7 9 10 12 13 14 14 15 17 16 15 15 15 17 20 21 22 22 21 21 22 24 26 27
26 24 21 18 15 13 13 13 12 12 12 12 12 11 11 10 8 7 7 8 11 13 13 14 13 12 12 12 12 12 12 13 16 19 21 22 23 23 22 23 24 25
26 23 20 17 15 14 15 13 13 12 11 11 12 13 13 12 9 8 7 8 11 13 14 14 12 10 9 9 10 11 12 13 14 15 18 20 21 23 25 26 26 26
23 21 19 16 15 15 16 15 14 13 12 11 12 13 13 11 9 9 9 9 11 13 14 14 12 10 9 10 11 12 13 15 16 16 18 18 18 20 24 27 28 28
23 22 19 16 15 15 16 16 15 15 14 12 12 13 13 11 11 11 11 10 11 12 14 14 14 12 11 12 12 12 13 16 17 18 19 19 18 18 20 23 26 28
23 21 19 18 17 16 16 17 17 16 16 13 12 13 12 12 13 13 12 12 11 12 13 14 14 15 14 14 13 13 13 15 16 17 18 19 19 19 21 21 22 26
21 21 20 20 19 16 16 18 18 18 16 13 12 12 12 14 15 15 14 13 13 12 12 14 15 15 16 15 14 14 14 14 15 16 17 18 19 20 21 22 22 23
22 22 22 21 19 17 18 19 19 18 16 13 12 12 13 14 15 15 15 14 13 12 12 14 15 15 15 15 15 15 14 14 15 15 16 17 18 20 21 22 22 23
25 25 23 21 19 19 20 20 19 17 14 12 12 12 13 14 14 15 15 15 13 12 12 14 14 13 15 16 16 15 15 14 14 14 15 16 18 20 21 22 21 21
28 27 24 22 21 21 21 20 18 16 14 13 13 13 13 14 16 16 16 14 13 12 12 13 13 13 15 16 16 15 15 14 13 13 13 14 16 18 19 19 19 18
29 28 25 24 23 23 22 20 19 17 15 14 13 14 14 15 16 16 15 14 13 12 11 12 13 14 15 16 16 14 14 14 13 13 13 13 13 14 15 15 15 15
30 28 26 25 25 24 22 21 20 18 15 14 13 14 14 15 16 16 16 16 15 13 12 11 12 13 15 16 15 14 13 13 13 14 14 14 12 11 11 11 12 13
29 28 27 26 26 24 23 21 19 17 15 14 13 13 13 15 16 16 17 17 16 15 12 11 11 12 14 15 15 14 13 13 13 13 14 13 12 10 9 8 9 9
Wind_Direction
230 237 241 243 245 250 252 253 252 249 246 246 247 249 251 255 261 264 263 258 253 251 248 246 245 246 249 252 252 252 252 252 251 251 250 249 249 251 253 255 256 254
222 223 228 236 245 251 251 250 251 249 247 246 246 248 250 253 256 257 259 258 258 257 252 250 249 247 246 248 249 250 251 252 253 253 252 252 252 252 254 256 257 256
205 205 212 226 237 241 243 245 246 245 246 245 244 247 251 255 257 257 258 258 260 260 254 251 253 251 249 249 249 250 250 250 252 253 254 255 255 255 256 257 257 257
203 206 209 217 226 232 239 245 246 246 248 246 244 245 248 253 257 259 260 260 261 262 256 253 253 254 254 254 253 253 252 251 252 253 253 254 255 257 260 260 258 257
209 210 208 211 217 225 237 244 247 249 251 252 250 249 250 250 250 251 253 254 257 260 259 257 256 255 257 257 256 256 256 255 253 251 251 251 251 253 258 260 259 256
209 209 208 209 208 217 229 233 237 240 246 251 249 251 254 252 250 250 250 251 254 256 259 259 259 257 257 258 258 257 258 258 257 254 253 252 251 252 254 257 257 256
208 212 214 215 214 215 220 225 231 233 236 240 238 245 252 254 257 254 252 255 256 257 260 262 265 264 261 260 261 261 261 262 262 260 258 255 254 254 254 254 255 256
210 215 218 218 215 210 213 219 223 223 228 233 235 243 245 244 252 245 241 250 253 254 255 255 260 262 262 264 265 266 266 266 266 265 262 260 257 256 255 253 253 253
214 215 210 207 207 209 214 216 216 220 228 236 239 239 229 216 218 216 208 208 211 215 220 228 238 244 247 252 257 263 268 269 269 266 262 260 257 256 255 253 252 251
210 209 203 202 206 210 215 215 216 221 225 231 234 226 215 211 216 213 204 200 199 200 206 216 228 236 241 241 242 249 257 263 267 266 262 259 258 258 257 254 253 251
201 204 202 202 203 204 208 211 213 218 221 226 226 222 220 222 225 224 218 215 216 221 232 241 248 251 250 243 237 238 244 250 257 261 262 262 261 261 260 258 256 255
196 200 200 199 199 199 202 207 213 219 221 219 218 221 225 228 231 236 242 250 260 267 272 277 279 278 275 268 257 247 243 246 252 256 259 260 260 260 260 260 258 257
195 198 198 198 198 199 204 212 218 220 218 215 217 221 225 230 238 251 267 279 285 287 286 287 287 284 281 277 271 262 253 249 251 254 256 258 258 257 257 257 257 257
194 194 195 197 197 201 209 214 214 216 217 217 218 219 220 228 240 256 274 289 294 292 292 295 293 282 275 273 271 267 261 255 254 255 256 257 258 258 258 257 255 254
189 189 193 196 196 200 203 205 210 215 219 218 217 216 216 221 232 246 265 284 290 292 296 302 296 279 273 277 277 275 272 265 262 261 261 260 259 259 260 260 258 255
185 189 193 192 194 198 197 201 209 209 207 211 215 215 214 217 225 237 252 271 281 286 294 299 290 276 282 295 295 293 291 284 277 271 270 269 264 261 259 259 260 259
185 188 190 189 193 198 198 204 208 201 196 205 213 213 213 219 228 239 248 260 271 280 288 292 285 277 288 301 301 300 300 297 293 285 280 277 273 266 261 258 258 260
186 186 187 188 193 197 201 207 206 196 194 201 206 206 211 224 238 245 250 254 262 273 282 288 288 284 288 296 299 300 300 299 298 295 292 287 282 276 270 264 260 258
183 184 186 189 193 197 201 202 196 192 195 198 197 200 214 233 242 245 248 252 258 267 276 285 289 288 287 291 296 298 299 298 299 302 302 298 294 289 283 277 268 260
184 186 188 191 193 196 196 192 189 190 194 195 196 206 223 236 240 240 243 248 254 262 274 282 284 284 285 289 293 296 296 296 297 301 304 302 298 293 288 284 277 267
189 189 188 189 191 192 189 187 190 193 196 200 211 225 235 239 241 241 242 247 252 260 276 284 282 279 283 289 293 294 294 295 295 296 301 302 296 288 284 282 279 272
192 189 188 187 187 186 185 187 193 197 201 208 219 230 238 241 241 242 244 246 251 262 279 286 283 281 286 292 294 293 293 298 301 300 301 301 296 289 283 282 282 277
193 190 188 186 184 184 186 190 195 198 202 211 220 227 235 237 237 239 243 246 250 261 278 287 288 289 293 296 296 292 293 301 308 307 303 300 299 295 288 284 285 282
192 190 188 186 186 187 190 193 196 199 206 214 223 230 236 237 237 238 241 243 246 255 270 284 292 296 297 298 297 292 291 298 307 309 306 299 299 299 292 283 280 277
192 191 190 189 190 192 195 197 198 201 208 216 223 230 237 239 235 235 239 240 241 247 260 279 295 301 300 300 298 292 287 292 301 307 305 298 296 299 295 284 276 270
193 194 194 194 195 197 199 201 201 203 210 218 223 227 236 237 231 233 240 239 236 242 255 274 296 306 306 303 300 291 284 287 296 304 305 300 296 297 298 293 283 272